Chehalis, WA
on Thursday, January 3, 2013

Thursday
Previous Day Next Day
Daily Summary
 ActualAverage (KOLM)Record (KOLM)
Temperature
Mean Temperature °F 39°F  
Max Temperature 41°F 44°F 59°F (1984)
Min Temperature 24°F 33°F 5°F (1950)
Degree Days
Heating Degree Days 32 26  
Month to date heating degree days 78  
Since 1 July heating degree days 2348  
Cooling Degree Days 0 0  
Month to date cooling degree days 0  
Year to date cooling degree days 0  
Moisture
Dew Point 28°F   
Average Humidity 84    
Maximum Humidity 100    
Minimum Humidity 61    
Precipitation
Precipitation 0.00 in 0.25 in 1.60 in (1984)
Month to date precipitation 0.75  
Year to date precipitation 0.75  
Wind
Wind Speed 3 mph   
Max Wind Speed 14 mph   
Max Gust Speed 22 mph   
Visibility 9 miles   
Events Rain   

Key: T is trace of precipitation, MM is missing value
Source: NWS Daily Summary
Time(PST)TemperatureDew PointHumidity Pressure Visibility Wind DirectionWind SpeedGust SpeedPrecipitationEvents Conditions
12:15 AM 26.6°F 24.8°F 93% 30.21 in 1.2 miles Calm Calm - N/A   Scattered Clouds
12:35 AM 26.6°F 26.6°F 100% 30.21 in 0.8 miles Calm Calm - N/A   Mostly Cloudy
12:55 AM 26.6°F 24.8°F 93% 30.21 in 0.8 miles Calm Calm - N/A   Mist
1:15 AM 26.6°F 24.8°F 93% 30.21 in 9.0 miles NNE 3.5 mph - N/A   Clear
1:35 AM 26.6°F 24.8°F 93% 30.20 in 9.0 miles Calm Calm - N/A   Clear
1:55 AM 26.6°F 24.8°F 93% 30.20 in 9.0 miles Calm Calm - N/A   Clear
2:15 AM 24.8°F 24.8°F 100% 30.20 in 8.0 miles Calm Calm - N/A   Clear
2:35 AM 24.8°F 24.8°F 100% 30.20 in 9.0 miles Calm Calm - N/A   Clear
2:55 AM 26.6°F 24.8°F 93% 30.20 in 10.0 miles Calm Calm - N/A   Clear
3:15 AM 24.8°F 24.8°F 100% 30.20 in 8.0 miles Calm Calm - N/A   Clear
3:35 AM 24.8°F 24.8°F 100% 30.19 in 10.0 miles Calm Calm - N/A   Clear
4:15 AM 24.8°F 24.8°F 100% 30.18 in 7.0 miles Calm Calm - N/A   Clear
4:35 AM 24.8°F 24.8°F 100% 30.18 in 10.0 miles Calm Calm - N/A   Clear
4:55 AM 24.8°F 24.8°F 100% 30.17 in 10.0 miles NNW 3.5 mph - N/A   Clear
5:15 AM 24.8°F 24.8°F 100% 30.17 in 10.0 miles Calm Calm - N/A   Clear
5:35 AM 24.8°F 23.0°F 93% 30.17 in 10.0 miles ENE 3.5 mph - N/A   Clear
5:55 AM 24.8°F 23.0°F 93% 30.16 in 10.0 miles Calm Calm - N/A   Clear
6:15 AM 24.8°F 23.0°F 93% 30.16 in 10.0 miles Calm Calm - N/A   Clear
6:35 AM 24.8°F 23.0°F 93% 30.15 in 10.0 miles Calm Calm - N/A   Clear
6:55 AM 24.8°F 23.0°F 93% 30.14 in 10.0 miles Calm Calm - N/A   Clear
7:35 AM 24.8°F 23.0°F 93% 30.14 in 10.0 miles WSW 3.5 mph - N/A   Clear
7:55 AM 24.8°F 23.0°F 93% 30.14 in 10.0 miles Calm Calm - N/A   Clear
8:15 AM 24.8°F 23.0°F 93% 30.14 in 10.0 miles Calm Calm - N/A   Clear
8:35 AM 24.8°F 24.8°F 100% 30.15 in 10.0 miles Calm Calm - N/A   Clear
8:55 AM 24.8°F 24.8°F 100% 30.16 in 10.0 miles Calm Calm - N/A   Clear
9:15 AM 28.4°F 26.6°F 93% 30.17 in 10.0 miles Calm Calm - N/A   Clear
9:35 AM 28.4°F 28.4°F 100% 30.16 in 10.0 miles Calm Calm - N/A   Clear
9:55 AM 30.2°F 28.4°F 93% 30.17 in 7.0 miles WSW 3.5 mph - N/A   Clear
10:15 AM 32.0°F 28.4°F 87% 30.17 in 5.0 miles Calm Calm - N/A   Clear
10:35 AM 32.0°F 28.4°F 87% 30.17 in 6.0 miles Calm Calm - N/A   Clear
10:55 AM 35.6°F 30.2°F 81% 30.16 in 10.0 miles Calm Calm - N/A   Clear
11:35 AM 37.4°F 28.4°F 70% 30.15 in 9.0 miles SSW 8.1 mph - N/A   Clear
11:55 AM 39.2°F 28.4°F 65% 30.14 in 10.0 miles South 9.2 mph - N/A   Clear
12:15 PM 39.2°F 30.2°F 70% 30.14 in 10.0 miles South 6.9 mph - N/A   Clear
12:35 PM 41.0°F 28.4°F 61% 30.13 in 10.0 miles South 8.1 mph - N/A   Clear
12:55 PM 41.0°F 28.4°F 61% 30.13 in 10.0 miles South 8.1 mph - N/A   Clear
1:15 PM 41.0°F 28.4°F 61% 30.13 in 10.0 miles SSW 8.1 mph - N/A   Partly Cloudy
1:35 PM 41.0°F 28.4°F 61% 30.13 in 10.0 miles SSE 5.8 mph - N/A   Partly Cloudy
1:55 PM 39.2°F 28.4°F 65% 30.14 in 10.0 miles South 8.1 mph - N/A   Scattered Clouds
2:15 PM 39.2°F 28.4°F 65% 30.13 in 10.0 miles South 5.8 mph - N/A   Mostly Cloudy
2:35 PM 39.2°F 28.4°F 65% 30.14 in 9.0 miles SSW 5.8 mph - N/A   Mostly Cloudy
2:55 PM 39.2°F 26.6°F 61% 30.14 in 6.0 miles South 6.9 mph - N/A   Haze
3:15 PM 39.2°F 26.6°F 61% 30.13 in 10.0 miles South 6.9 mph - N/A   Overcast
3:35 PM 39.2°F 26.6°F 61% 30.13 in 6.0 miles SSW 6.9 mph - N/A   Haze
3:55 PM 39.2°F 26.6°F 61% 30.13 in 10.0 miles South 6.9 mph - N/A   Overcast
4:15 PM 39.2°F 26.6°F 61% 30.12 in 10.0 miles South 4.6 mph - N/A   Overcast
4:35 PM 39.2°F 28.4°F 65% 30.13 in 6.0 miles South 6.9 mph - N/A   Haze
4:55 PM 39.2°F 28.4°F 65% 30.12 in 9.0 miles SSW 4.6 mph - N/A Rain Light Rain
5:15 PM 37.4°F 30.2°F 75% 30.13 in 7.0 miles SSW 4.6 mph - N/A Rain Light Rain
5:35 PM 37.4°F 30.2°F 75% 30.13 in 8.0 miles South 4.6 mph - N/A   Overcast
5:55 PM 37.4°F 32.0°F 81% 30.13 in 6.0 miles South 4.6 mph - N/A   Haze
6:15 PM 35.6°F 32.0°F 87% 30.13 in 10.0 miles South 5.8 mph - N/A Rain Light Rain
6:35 PM 35.6°F 32.0°F 87% 30.14 in 10.0 miles South 8.1 mph - N/A   Overcast
6:55 PM 35.6°F 32.0°F 87% 30.14 in 10.0 miles South 6.9 mph - N/A Rain Light Rain
7:15 PM 35.6°F 32.0°F 87% 30.14 in 10.0 miles South 5.8 mph - N/A   Overcast
7:35 PM 35.6°F 32.0°F 87% 30.14 in 10.0 miles South 3.5 mph - N/A   Overcast
7:55 PM 35.6°F 32.0°F 87% 30.15 in 10.0 miles South 4.6 mph - N/A   Overcast
8:15 PM 35.6°F 32.0°F 87% 30.14 in 9.0 miles South 6.9 mph - N/A   Overcast
8:35 PM 35.6°F 32.0°F 87% 30.15 in 7.0 miles SSW 5.8 mph - N/A   Overcast
8:55 PM 37.4°F 32.0°F 81% 30.15 in 10.0 miles SSW 6.9 mph - N/A   Overcast
9:15 PM 37.4°F 32.0°F 81% 30.16 in 10.0 miles SSW 5.8 mph - N/A   Overcast
9:35 PM 37.4°F 32.0°F 81% 30.16 in 10.0 miles South 8.1 mph - N/A   Overcast
9:55 PM 37.4°F 35.6°F 93% 30.16 in 10.0 miles South 11.5 mph - N/A   Overcast
10:15 PM 39.2°F 35.6°F 87% 30.17 in 10.0 miles SSW 10.4 mph - N/A   Overcast
10:35 PM 41.0°F 37.4°F 87% 30.18 in 10.0 miles SSW 9.2 mph 18.4 mph N/A   Overcast
10:55 PM 41.0°F 37.4°F 87% 30.18 in 10.0 miles SSW 12.7 mph 20.7 mph N/A   Overcast
11:15 PM 41.0°F 37.4°F 87% 30.18 in 9.0 miles SSW 11.5 mph 21.9 mph N/A   Overcast
11:35 PM 41.0°F 37.4°F 87% 30.19 in 10.0 miles SSW 13.8 mph - N/A   Overcast
11:55 PM 41.0°F 37.4°F 87% 30.20 in 10.0 miles SSW 11.5 mph 20.7 mph N/A   Overcast
Moon Phase
Jan. 03 Jan. 04 Jan. 11 Jan. 18 Jan. 26
Sunrise:07:56 AM (PST) Moon Rise:11:45 PM (PST)1/3
Sunset:04:37 PM (PST) Moon Set:10:46 AM (PST)1/3

Copyright © 2014 The Weather Underground, Inc.